When you browse on this site, cookies collect data to enhance your experience and personalize the content and advertising you see.
Visit our Privacy Policy to learn more. By continuing to use the site, you agree to this use of cookies and data.
  • In Lithuania
  • List of Countries
  • For 7 days
  • Water Temperature
  • Weather Map
  • Weather Widgets
  • user-avatar
    Login

    Hourly Weather Etchmiadzin

    Today, 2 June, Tuesday

    Time Temperature Precipitation Wind Pressure Humidity
    00:00 +21°C° 0 mm 1 mps 684 mmHg 40%
    01:00 +20°C° 0 mm 1 mps 683 mmHg 40%
    02:00 +20°C° 0 mm 1 mps 683 mmHg 40%
    03:00 +20°C° 0 mm 1 mps 683 mmHg 42%
    04:00 +21°C° 0 mm 1 mps 683 mmHg 44%
    05:00 +22°C° 0 mm 1 mps 683 mmHg 45%
    06:00 +23°C° 0 mm 1 mps 683 mmHg 46%
    07:00 +24°C° 0 mm 1 mps 683 mmHg 40%
    08:00 +26°C° 0 mm 1 mps 683 mmHg 34%
    09:00 +28°C° 0 mm 1 mps 683 mmHg 28%
    10:00 +29°C° 0 mm 3 mps 683 mmHg 28%
    11:00 +30°C° 0 mm 5 mps 683 mmHg 28%
    12:00 +30°C° 0 mm 7 mps 683 mmHg 28%
    13:00 +29°C° 0.3 mm 6 mps 683 mmHg 32%
    14:00 +28°C° 0.3 mm 5 mps 683 mmHg 36%
    15:00 +27°C° 0.3 mm 4 mps 682 mmHg 41%
    16:00 +27°C° 0.1 mm 3 mps 682 mmHg 42%
    17:00 +27°C° 0.1 mm 3 mps 682 mmHg 43%
    18:00 +27°C° 0.1 mm 2 mps 681 mmHg 43%
    19:00 +26°C° 0 mm 2 mps 681 mmHg 46%
    20:00 +24°C° 0 mm 2 mps 681 mmHg 49%
    21:00 +21°C° 0 mm 2 mps 681 mmHg 52%
    22:00 +21°C° 0 mm 2 mps 681 mmHg 52%
    23:00 +20°C° 0 mm 2 mps 681 mmHg 51%

    Tomorrow, 3 June, Wednesday

    Time Temperature Precipitation Wind Pressure Humidity
    00:00 +20°C° 0 mm 2 mps 681 mmHg 51%
    01:00 +20°C° 0 mm 1 mps 681 mmHg 51%
    02:00 +19°C° 0 mm 1 mps 681 mmHg 51%
    03:00 +19°C° 0 mm 1 mps 681 mmHg 51%
    04:00 +19°C° 0 mm 1 mps 682 mmHg 51%
    05:00 +20°C° 0 mm 1 mps 682 mmHg 50%
    06:00 +21°C° 0 mm 1 mps 682 mmHg 49%
    07:00 +23°C° 0 mm 2 mps 682 mmHg 44%
    08:00 +25°C° 0 mm 2 mps 683 mmHg 39%
    09:00 +27°C° 0 mm 2 mps 683 mmHg 33%
    10:00 +28°C° 0 mm 2 mps 683 mmHg 31%
    11:00 +29°C° 0 mm 3 mps 683 mmHg 29%
    12:00 +30°C° 0 mm 3 mps 683 mmHg 26%
    13:00 +30°C° 0.3 mm 3 mps 682 mmHg 30%
    14:00 +29°C° 0.3 mm 4 mps 682 mmHg 34%
    15:00 +28°C° 0.3 mm 4 mps 682 mmHg 38%
    16:00 +28°C° 0.1 mm 3 mps 682 mmHg 39%
    17:00 +28°C° 0.1 mm 3 mps 682 mmHg 40%
    18:00 +27°C° 0.1 mm 2 mps 682 mmHg 40%
    19:00 +26°C° 0 mm 2 mps 682 mmHg 43%
    20:00 +24°C° 0 mm 2 mps 683 mmHg 45%
    21:00 +21°C° 0 mm 2 mps 683 mmHg 48%
    22:00 +20°C° 0.1 mm 2 mps 683 mmHg 47%
    23:00 +19°C° 0.1 mm 2 mps 683 mmHg 45%

    Day after tomorrow, 4 June, Thursday

    Time Temperature Precipitation Wind Pressure Humidity
    00:00 +19°C° 0.1 mm 2 mps 683 mmHg 44%
    01:00 +18°C° 0 mm 2 mps 683 mmHg 44%
    02:00 +17°C° 0 mm 2 mps 683 mmHg 44%
    03:00 +16°C° 0 mm 2 mps 683 mmHg 44%
    04:00 +18°C° 0 mm 1 mps 684 mmHg 44%
    05:00 +19°C° 0 mm 1 mps 684 mmHg 44%
    06:00 +20°C° 0 mm 1 mps 685 mmHg 44%
    07:00 +22°C° 0 mm 1 mps 685 mmHg 39%
    08:00 +23°C° 0 mm 1 mps 685 mmHg 33%
    09:00 +25°C° 0 mm 1 mps 685 mmHg 27%
    10:00 +27°C° 0 mm 1 mps 685 mmHg 25%
    11:00 +28°C° 0 mm 1 mps 685 mmHg 23%
    12:00 +29°C° 0 mm 1 mps 685 mmHg 21%
    13:00 +30°C° 0 mm 1 mps 685 mmHg 21%
    14:00 +30°C° 0 mm 1 mps 685 mmHg 20%
    15:00 +31°C° 0 mm 1 mps 685 mmHg 20%
    16:00 +31°C° 0 mm 1 mps 685 mmHg 22%
    17:00 +30°C° 0 mm 1 mps 685 mmHg 25%
    18:00 +30°C° 0 mm 1 mps 685 mmHg 27%
    19:00 +28°C° 0 mm 2 mps 685 mmHg 29%
    20:00 +26°C° 0 mm 3 mps 686 mmHg 30%
    21:00 +22°C° 0 mm 4 mps 686 mmHg 31%
    22:00 +21°C° 0 mm 3 mps 686 mmHg 32%
    23:00 +21°C° 0 mm 3 mps 686 mmHg 33%

    5 June, Friday

    Time Temperature Precipitation Wind Pressure Humidity
    00:00 +20°C° 0 mm 2 mps 686 mmHg 34%
    01:00 +19°C° 0 mm 2 mps 686 mmHg 36%
    02:00 +18°C° 0 mm 2 mps 686 mmHg 37%
    03:00 +18°C° 0 mm 2 mps 686 mmHg 38%
    04:00 +18°C° 0 mm 2 mps 687 mmHg 40%
    05:00 +20°C° 0 mm 1 mps 687 mmHg 42%
    06:00 +21°C° 0 mm 1 mps 688 mmHg 44%
    07:00 +23°C° 0 mm 1 mps 688 mmHg 39%
    08:00 +25°C° 0 mm 1 mps 688 mmHg 33%
    09:00 +26°C° 0 mm 1 mps 688 mmHg 28%
    10:00 +28°C° 0 mm 2 mps 688 mmHg 26%
    11:00 +29°C° 0 mm 2 mps 688 mmHg 24%
    12:00 +30°C° 0 mm 2 mps 688 mmHg 21%
    13:00 +30°C° 0 mm 3 mps 688 mmHg 21%
    14:00 +32°C° 0 mm 4 mps 688 mmHg 21%
    15:00 +32°C° 0 mm 5 mps 688 mmHg 21%
    16:00 +30°C° 0 mm 4 mps 688 mmHg 24%
    17:00 +29°C° 0 mm 3 mps 688 mmHg 27%
    18:00 +29°C° 0 mm 2 mps 688 mmHg 30%
    19:00 +26°C° 0 mm 2 mps 688 mmHg 32%
    20:00 +24°C° 0 mm 2 mps 688 mmHg 35%
    21:00 +21°C° 0 mm 2 mps 688 mmHg 37%
    22:00 +20°C° 0 mm 2 mps 688 mmHg 40%
    23:00 +19°C° 0 mm 2 mps 688 mmHg 42%

    6 June, Saturday

    Time Temperature Precipitation Wind Pressure Humidity
    00:00 +19°C° 0 mm 2 mps 689 mmHg 44%
    01:00 +18°C° 0 mm 2 mps 688 mmHg 46%
    02:00 +17°C° 0 mm 2 mps 688 mmHg 47%
    03:00 +17°C° 0 mm 2 mps 688 mmHg 49%
    04:00 +18°C° 0 mm 2 mps 688 mmHg 49%
    05:00 +18°C° 0 mm 2 mps 688 mmHg 49%
    06:00 +19°C° 0 mm 2 mps 689 mmHg 50%
    07:00 +21°C° 0 mm 2 mps 689 mmHg 45%
    08:00 +24°C° 0 mm 2 mps 689 mmHg 40%
    09:00 +26°C° 0 mm 2 mps 689 mmHg 35%
    10:00 +27°C° 0 mm 2 mps 689 mmHg 32%
    11:00 +29°C° 0 mm 2 mps 689 mmHg 28%
    12:00 +30°C° 0 mm 1 mps 689 mmHg 24%
    13:00 +30°C° 0 mm 1 mps 689 mmHg 23%
    14:00 +31°C° 0 mm 1 mps 689 mmHg 21%
    15:00 +31°C° 0 mm 1 mps 689 mmHg 20%
    16:00 +31°C° 0 mm 2 mps 689 mmHg 23%
    17:00 +30°C° 0 mm 3 mps 689 mmHg 27%
    18:00 +29°C° 0 mm 4 mps 689 mmHg 31%
    19:00 +27°C° 0 mm 3 mps 689 mmHg 35%
    20:00 +25°C° 0 mm 3 mps 689 mmHg 40%
    21:00 +21°C° 0 mm 3 mps 689 mmHg 44%
    22:00 +20°C° 0 mm 2 mps 689 mmHg 46%
    23:00 +19°C° 0 mm 2 mps 689 mmHg 49%

    7 June, Sunday

    Time Temperature Precipitation Wind Pressure Humidity
    00:00 +19°C° 0 mm 1 mps 689 mmHg 51%
    01:00 +19°C° 0 mm 1 mps 688 mmHg 52%
    02:00 +18°C° 0 mm 1 mps 688 mmHg 53%
    03:00 +18°C° 0 mm 1 mps 688 mmHg 54%
    04:00 +19°C° 0 mm 1 mps 688 mmHg 53%
    05:00 +20°C° 0 mm 1 mps 689 mmHg 53%
    06:00 +20°C° 0 mm 1 mps 689 mmHg 52%
    07:00 +22°C° 0 mm 1 mps 689 mmHg 47%
    08:00 +24°C° 0 mm 1 mps 689 mmHg 42%
    09:00 +26°C° 0 mm 1 mps 689 mmHg 37%
    10:00 +27°C° 0 mm 1 mps 689 mmHg 33%
    11:00 +29°C° 0 mm 1 mps 689 mmHg 30%
    12:00 +30°C° 0 mm 1 mps 689 mmHg 26%
    13:00 +31°C° 0 mm 1 mps 689 mmHg 24%
    14:00 +31°C° 0 mm 1 mps 689 mmHg 23%
    15:00 +32°C° 0 mm 1 mps 688 mmHg 21%
    16:00 +32°C° 0 mm 1 mps 688 mmHg 23%
    17:00 +32°C° 0 mm 1 mps 688 mmHg 25%
    18:00 +29°C° 0 mm 0 mps 688 mmHg 27%
    19:00 +29°C° 0 mm 1 mps 688 mmHg 31%
    20:00 +26°C° 0 mm 1 mps 688 mmHg 35%
    21:00 +24°C° 0 mm 2 mps 688 mmHg 39%
    22:00 +23°C° 0 mm 2 mps 688 mmHg 41%
    23:00 +21°C° 0 mm 2 mps 688 mmHg 44%
    Show more